Flag for USA

Past Weather in Worcester, Massachusetts, USA — Yesterday and Last 2 Weeks

Now
64 °F

Fog.


Feels Like: 64 °F
Forecast: 76 / 63 °F
Wind: 6 mph from South

Location: Worcester Regional Airport
Current Time: Sep 27, 2020 at 7:36:11 am
Latest Report: Sep 27, 2020 at 6:54 am
Visibility: 2 mi
Pressure30.04 "Hg
Humidity: 97%
Dew Point: 63 °F
Location of WorcesterLocation

Past Weather in Worcester — Graph

°F

Worcester Temperature Yesterday

Maximum temperature yesterday: 75 °F (at 2:54 pm)
Minimum temperature yesterday: 54 °F (at 3:27 am)
Average temperature yesterday: 62 °F

High & Low Weather Summary for the Past Weeks

 TemperatureHumidityPressure
High77 °F (Sep 25, 3:54 pm)97% (Sep 26, 3:27 am)30.61 "Hg (Sep 26, 3:27 am)
Low43 °F (Sep 19, 4:54 am)24% (Sep 22, 4:54 pm)29.76 "Hg (Sep 23, 2:54 pm)
Average59 °F64%30.15 "Hg
* Reported Sep 12 6:54 am — Sep 27 6:33 am, Worcester. Weather by CustomWeather, © 2020

Note: Actual official high and low records may vary slightly from our data, if they occured in-between our weather recording intervals... More about our weather records

Worcester Weather History for the Previous 24 Hours

Scroll right to see more
 ConditionsComfort  
Time TempWeatherWind HumidityBarometerVisibility
6:33 am
Sun, Sep 27
64 °FLow clouds.7 mph97%30.05 "Hg7 mi
6:02 am64 °FFog.7 mph97%30.05 "Hg1 mi
5:54 am64 °FFog.6 mph97%30.04 "Hg1 mi
5:20 am64 °FFog.6 mph97%30.05 "Hg2 mi
5:01 am64 °FFog.7 mph97%30.05 "Hg2 mi
3:54 am64 °FLow clouds.6 mph94%30.04 "Hg9 mi
2:54 am64 °FLow clouds.6 mph94%30.05 "Hg10 mi
2:38 am64 °FLow clouds.7 mph94%30.06 "Hg10 mi
1:54 am64 °FFog.5 mph94%30.05 "Hg1 mi
1:25 am63 °FFog.9 mph97%30.07 "Hg1 mi
1:08 am63 °FFog.7 mph97%30.07 "Hg2 mi
12:54 am64 °FLow clouds.7 mph90%30.06 "Hg8 mi
12:09 am64 °FLow clouds.7 mph90%30.08 "Hg10 mi
11:54 pm
Sat, Sep 26
64 °FLow clouds.9 mph94%30.08 "Hg10 mi
10:54 pm65 °FLow clouds.8 mph87%30.10 "Hg10 mi
10:28 pm65 °FPassing clouds.8 mph87%30.11 "Hg10 mi
10:20 pm64 °FPassing clouds.8 mph87%30.10 "Hg10 mi
8:54 pm67 °FPassing clouds.8 mph79%30.10 "Hg10 mi
7:54 pm67 °FClear.7 mph76%30.10 "Hg10 mi
6:54 pm69 °FOvercast.10 mph70%30.09 "Hg10 mi
5:54 pm71 °FPartly sunny.12 mph66%30.07 "Hg10 mi
4:54 pm72 °FOvercast.8 mph61%30.07 "Hg10 mi
3:54 pm73 °FOvercast.9 mph57%30.08 "Hg10 mi
2:54 pm75 °FPartly sunny.8 mph52%30.08 "Hg10 mi
1:54 pm73 °FSunny.7 mph53%30.10 "Hg10 mi
12:54 pm71 °FSunny.9 mph53%30.11 "Hg10 mi
11:54 am67 °FSunny.5 mph76%30.13 "Hg10 mi
11:26 am64 °FScattered clouds.5 mph84%30.14 "Hg8 mi
11:19 am63 °FPartly sunny.3 mph84%30.14 "Hg7 mi
10:54 am61 °FFog.6 mph87%30.14 "Hg4 mi
10:31 am59 °FFog.6 mph96%30.15 "Hg2 mi
10:22 am59 °FFog.5 mph96%30.15 "Hg1 mi
10:13 am59 °FFog.6 mph96%30.15 "Hg1 mi
8:54 am58 °FFog.5 mph97%30.15 "Hg0 mi
7:54 am58 °FFog.5 mph97%30.16 "Hg0 mi
Weather by CustomWeather, © 2020

See weather overview